Other Surface Observations
Issued by NWS Jacksonville, FL

Home | Current Version | Previous Version | Text Only | Print | Product List | Glossary On
Versions: 1 2 3 4 5 6 7 8 9 10 11 12 13 14 15 16 17 18 19 20 21 22 23 24 25 26 27 28 29 30 31 32 33 34 35 36 37 38 39 40 41 42 43 44 45 46 47 48 49 50
000
SXUS52 KJAX 130210
OSOJAX
OTHER SURFACE OBSERVATIONS
NATIONAL WEATHER SERVICE JACKSONVILLE FL
1000 PM EDT SAT JUL 12 2014

FLZ020>025-030>033-035>038-040-130300-
...FLORIDA...

CITY           SKY/WX    TMP DP  RH WIND       PRES   REMARKS
CECIL FIELD    CLOUDY    73  73 100 CALM      30.15S FOG
HERLONG FIELD  NOT AVBL
FERNANDINA BCH NOT AVBL
LAKE CITY      FAIR      70  70 100 MISG      30.13S
JUNIPER SPGS   NOT AVBL
BUNNELL        FAIR      77  74  91 CALM      30.13S
KEYSTONE HGTS  FAIR      73  73 100 CALM      30.15S
$$

GAZ132>136-149>154-162>166-130300-
...GEORGIA...

CITY           SKY/WX    TMP DP  RH WIND       PRES   REMARKS
JESUP          NOT AVBL
HOMERVILLE     FAIR      73  73 100 E3        30.14S
SWAINSBORO     FAIR      81  75  83 S5        30.15S
CORDELE        NOT AVBL
$$

PLEASE NOTE:  THESE OBSERVATIONS ARE NOT QUALITY CONTROLLED AND MAY
NOT BE AVAILABLE AT ALL TIMES.
$$


USA.gov is the U.S. government's official web portal to all federal, state and local government web resources and services.